Location: Rayville (historical)
(39.9992°N, 99.6815°W)
Time: 03:57:24
(UTC+00:00)

SL-16 R/B - Pass Details

Date: 18 February 2020
Orbit: 843 x 847 km, 71.0° (Epoch: 09 April)

Event Time Altitude Azimuth Distance (km) Brightness Sun altitude
Exits shadow 11:16:48 38° 337° (NNW) 1,279 2.9 -25.8°
Drops below altitude 10° 11:20:47 10° 11° (NNE) 2,472 4.8 -25.1°
Sets 11:23:22 0° 18° (NNE) 3,410 5.7 -24.6°
